Theta_e
320 321 321 320 320 320 320 321 321 321 322 323 323 324 323 323 322 322 316 320 323 333 327 321 319 318 319 318 319 320 313 312 314 314 320 328 324 325 323 317 319 320 322 327 332
319 320 320 320 320 319 319 320 320 320 321 323 323 324 323 322 323 320 329 332 334 338 319 317 314 317 315 316 317 315 314 313 319 321 322 326 324 323 318 317 319 318 324 328 331
319 320 319 319 319 319 318 319 320 320 321 321 322 323 322 322 324 318 335 333 332 334 322 319 318 316 313 317 316 316 314 318 319 322 326 325 322 325 318 316 320 317 321 325 328
318 318 318 318 318 318 318 319 319 320 321 321 322 322 322 327 313 324 339 337 339 326 320 317 316 313 313 312 317 313 318 319 324 324 325 324 325 322 320 321 324 321 324 325 326
317 317 317 317 317 318 318 318 319 319 321 320 321 322 323 325 323 334 340 334 324 322 318 316 315 315 312 314 316 314 316 321 326 326 327 327 324 323 323 325 326 322 324 324 325
316 316 316 316 316 317 317 317 317 318 321 320 321 322 325 318 329 333 323 321 320 321 318 318 317 318 315 315 313 316 316 322 326 326 328 324 324 325 326 327 326 322 322 324 324
315 315 315 315 316 316 317 316 316 319 320 321 322 324 321 320 330 328 327 321 322 321 316 319 319 317 317 314 317 318 316 323 325 327 325 327 321 320 328 327 326 323 322 323 325
315 314 314 315 315 316 316 316 316 322 321 322 324 327 320 330 332 324 325 322 323 322 320 321 321 318 316 321 319 316 318 313 321 324 325 325 314 321 327 325 324 326 323 324 327
314 313 313 314 315 315 315 315 318 324 323 324 327 326 315 323 324 326 321 318 320 320 320 319 319 316 316 315 312 315 309 312 317 323 322 321 314 322 326 325 325 327 327 326 328
313 313 312 313 314 314 313 314 320 321 323 328 326 319 319 315 324 324 323 320 316 317 316 316 315 311 312 311 305 307 309 312 314 320 320 317 316 323 324 325 324 326 327 328 329
313 312 312 313 313 312 315 323 318 319 321 314 314 315 314 320 323 322 321 319 317 315 309 313 309 306 309 311 313 311 312 309 314 321 318 316 317 318 322 322 323 325 326 328 329
311 312 312 312 312 312 316 314 310 311 306 314 315 315 317 318 315 319 322 313 313 308 311 310 306 311 313 310 309 310 311 311 315 320 318 316 315 318 321 322 322 323 326 328 330
311 311 312 312 311 315 317 312 316 315 310 313 316 314 314 317 314 316 319 314 311 308 309 307 310 311 310 309 307 308 309 310 311 315 317 313 310 315 319 321 322 323 325 328 330
310 311 311 310 312 317 316 315 317 320 307 310 312 316 315 315 311 320 320 315 311 308 309 309 312 308 308 307 309 305 311 311 310 310 305 312 300 309 313 315 318 320 323 326 329
310 311 310 308 315 314 315 317 317 320 298 311 313 320 316 311 315 315 321 315 309 309 310 307 308 307 305 306 309 307 311 310 310 307 307 306 303 307 311 311 315 319 321 324 327
310 310 310 316 319 319 318 318 317 307 297 308 313 310 309 311 313 316 315 317 316 311 312 310 314 311 309 309 310 311 309 309 309 307 300 305 304 305 309 312 315 318 320 323 325
309 309 309 316 315 320 319 314 305 300 307 305 308 310 310 308 309 311 311 310 307 304 305 308 308 311 311 307 310 309 306 299 297 297 297 307 304 307 313 315 316 316 318 321 324
307 306 313 317 320 321 318 307 298 304 304 309 309 310 307 310 310 310 309 307 312 310 306 304 301 308 311 308 307 307 306 299 293 295 299 307 301 306 314 316 317 318 319 321 324
305 320 319 323 321 320 311 300 302 304 307 305 306 304 306 309 309 309 308 308 311 312 306 304 303 310 311 312 310 307 304 309 303 304 300 304 307 313 314 314 315 316 318 321 322
310 316 319 321 324 317 306 299 305 307 306 307 302 305 303 307 307 307 307 310 309 312 315 309 303 309 310 311 312 310 312 304 305 297 295 301 303 304 311 312 315 316 318 320 322
313 313 319 323 320 312 302 304 306 308 306 304 303 303 305 305 308 307 308 310 312 311 313 311 308 307 310 307 305 307 305 308 308 305 298 297 301 313 313 316 316 318 319 321 322
315 309 318 321 309 311 306 307 299 306 308 306 305 304 304 305 305 306 307 310 313 313 308 312 309 304 306 312 312 309 308 308 301 301 304 303 302 314 315 316 318 318 320 322 323
310 311 318 316 305 309 312 307 307 306 306 305 305 306 308 305 302 305 306 313 312 312 311 314 308 302 304 308 311 307 308 309 311 311 304 300 303 316 317 317 318 318 319 321 323
309 305 311 313 313 308 308 308 307 310 307 308 307 309 307 306 308 305 306 309 312 312 317 315 312 306 300 305 309 307 307 308 308 303 302 303 306 311 313 315 317 318 320 321 321
310 308 308 305 308 308 308 307 304 305 310 311 308 307 306 304 305 305 307 308 310 314 311 313 307 308 308 308 309 307 307 308 307 307 303 306 306 310 314 316 318 320 321 321 322
305 306 312 306 308 306 303 304 304 305 306 306 306 309 309 306 308 306 309 311 309 312 311 314 306 309 305 308 308 305 307 307 307 307 307 308 308 314 316 317 317 319 320 320 321
313 311 306 303 303 301 302 303 303 305 306 308 307 306 304 307 308 310 311 312 312 310 311 311 309 307 302 306 306 302 306 308 308 310 309 305 310 315 315 316 317 318 320 320 321
Wind_Speed
20 19 18 18 18 18 18 17 15 14 12 10 8 7 8 8 9 9 11 3 5 8 5 9 10 12 13 15 10 12 13 13 10 2 18 13 11 10 12 14 8 6 18 20 20
21 20 19 19 19 18 19 18 17 15 13 10 8 7 7 7 13 15 8 8 7 7 11 10 11 11 12 14 9 12 14 6 13 10 10 11 13 12 14 14 12 15 22 21 20
21 21 20 21 21 19 19 19 17 17 14 11 9 7 6 9 12 8 7 10 6 10 17 9 10 11 15 13 14 15 18 11 8 6 3 11 12 9 14 13 16 19 22 22 19
22 22 22 22 22 21 20 19 18 17 14 11 9 7 5 12 3 10 8 9 8 11 12 11 11 13 14 15 15 11 11 6 7 2 8 12 12 8 12 10 17 19 21 20 19
22 24 23 22 22 21 20 20 19 17 13 9 8 6 7 11 7 12 12 9 11 12 13 10 11 12 15 13 12 13 5 2 2 8 7 8 9 6 12 6 17 21 21 21 19
22 23 24 23 23 23 21 20 18 16 9 7 8 5 8 14 9 14 15 15 14 14 11 9 8 7 11 13 10 11 7 7 9 12 6 11 10 6 9 11 13 21 21 20 19
22 23 24 24 24 23 22 20 17 14 5 6 9 7 12 6 3 7 13 15 15 13 7 7 6 10 7 10 9 5 11 9 11 15 13 14 13 12 13 13 14 19 18 18 18
23 24 26 25 25 25 23 20 17 11 4 6 8 11 11 5 2 7 12 14 10 9 9 2 7 10 9 8 6 15 16 15 18 17 9 15 15 18 16 14 16 18 17 17 18
23 24 26 27 27 27 24 21 12 9 7 6 8 9 12 5 10 9 11 13 13 10 8 3 10 12 8 13 15 13 14 19 19 18 13 16 3 13 13 15 15 15 17 18 18
23 25 26 28 28 28 26 13 2 3 7 10 10 9 9 12 12 7 11 12 14 12 11 12 10 12 13 14 13 17 18 18 15 19 18 19 18 19 14 13 13 16 16 19 19
25 25 26 28 28 27 17 6 7 9 14 14 11 14 1 3 4 11 11 12 16 13 16 17 14 15 17 16 20 12 13 21 18 18 19 16 19 14 15 13 15 15 15 18 19
25 25 27 28 28 29 11 6 7 8 12 14 14 15 11 1 10 14 15 16 15 16 18 16 15 18 18 4 10 14 19 18 11 12 11 16 18 15 15 19 17 15 17 19 19
23 24 27 29 30 15 8 6 7 7 9 7 5 13 14 15 14 15 15 19 17 17 18 17 15 20 15 12 14 16 17 15 14 11 10 14 19 16 16 18 14 15 16 20 20
23 23 25 31 9 12 2 6 10 4 9 12 10 8 9 13 14 15 16 17 16 16 18 13 16 8 15 13 18 18 17 19 15 12 12 20 15 19 21 19 18 17 16 19 21
23 23 24 12 13 8 8 10 11 5 8 4 10 6 9 18 7 19 13 18 17 13 10 15 15 15 16 18 21 17 18 15 17 14 16 18 10 13 20 11 11 15 15 16 20
24 22 22 4 11 9 11 12 7 9 6 6 6 9 13 17 8 13 14 17 12 17 14 16 15 11 16 19 15 15 19 17 15 16 18 20 20 15 15 15 18 16 17 16 18
26 26 13 9 7 10 10 8 9 10 6 5 4 5 12 13 16 12 15 17 16 14 17 17 19 14 15 19 10 16 13 12 15 16 16 20 22 15 20 13 16 7 12 10 17
29 28 4 9 10 8 8 9 10 8 4 5 5 7 12 12 15 17 15 16 20 21 15 13 16 21 17 18 16 17 17 15 19 18 20 25 24 18 13 11 12 13 8 8 11
32 6 7 4 6 6 8 11 13 4 7 5 8 12 14 15 9 13 19 18 16 19 19 13 14 3 16 18 20 19 18 19 22 22 19 17 7 14 8 10 9 11 9 11 9
9 10 6 4 2 7 9 16 14 6 7 12 15 8 12 12 14 16 15 15 18 15 15 15 15 9 11 11 17 16 11 12 11 18 21 14 15 12 9 9 11 11 12 10 9
7 6 7 2 5 8 11 14 12 6 5 9 12 15 12 15 9 14 15 16 9 12 13 14 14 14 12 13 18 14 17 14 13 13 14 15 14 8 6 12 11 12 10 9 7
6 6 5 3 8 9 12 9 3 10 8 11 11 14 16 16 13 15 15 12 5 7 11 16 8 15 20 14 18 21 18 21 15 18 14 14 16 12 2 6 10 11 9 8 6
6 8 6 5 8 8 10 7 10 12 12 8 10 10 12 12 16 15 20 12 3 8 6 5 9 14 18 16 12 11 18 17 16 11 17 17 13 9 10 9 12 10 11 12 11
6 5 7 6 4 8 12 10 14 8 11 13 15 14 13 13 14 11 14 10 12 12 6 4 12 16 15 17 15 17 21 20 20 16 18 19 22 20 18 11 13 13 14 12 12
5 2 5 4 5 7 5 10 12 11 7 8 9 14 17 16 17 18 19 20 17 10 11 10 17 20 23 24 25 25 20 18 21 21 21 19 22 19 17 11 16 13 15 13 13
6 5 1 10 8 11 8 10 13 11 7 11 14 12 11 12 14 16 17 16 12 11 13 15 18 18 26 26 28 28 27 25 24 24 23 21 23 20 19 19 16 10 11 13 13
2 3 5 5 8 7 9 11 6 6 8 11 10 8 12 9 16 17 17 16 16 16 15 15 14 16 23 23 25 33 27 26 25 25 22 23 22 18 19 18 20 14 14 15 15
Wind_Direction
350 344 340 339 337 336 335 334 329 324 314 306 300 281 276 284 285 229 236 75 161 166 207 222 220 226 231 247 240 248 266 255 114 245 108 143 130 105 106 132 129 80 133 134 143
347 341 340 338 337 336 333 333 327 320 310 302 295 278 274 286 263 245 155 124 119 188 222 212 209 213 225 229 217 236 242 351 48 15 122 157 136 125 145 139 127 107 116 137 153
344 341 339 338 336 337 333 329 325 319 307 296 282 264 259 271 266 109 144 132 176 203 252 249 264 215 234 226 221 223 260 31 90 352 296 142 140 155 142 158 147 141 143 153 161
343 341 339 337 334 334 333 329 325 319 306 286 272 262 257 248 305 84 130 135 175 233 246 221 230 220 248 219 230 256 254 329 42 225 231 153 128 183 155 180 143 147 153 159 169
341 340 338 336 332 332 332 329 322 318 301 268 251 244 250 230 85 127 140 147 192 218 227 223 233 234 236 224 207 227 238 237 223 215 202 143 152 195 169 119 142 150 161 167 175
341 338 336 335 332 329 331 325 321 319 301 235 219 200 249 253 96 137 173 177 224 219 217 241 253 320 307 262 210 202 257 221 202 179 146 181 161 198 190 160 162 158 171 174 178
340 337 335 332 329 328 328 322 320 316 305 212 206 238 267 280 82 146 175 193 213 222 212 221 298 264 276 247 240 233 234 211 215 162 161 220 182 203 141 175 166 169 179 178 181
339 338 334 331 329 325 323 318 314 298 267 220 212 256 274 91 98 181 184 193 202 225 275 285 250 266 268 314 235 234 234 194 182 182 133 227 211 186 152 178 171 180 182 182 183
339 337 332 328 328 323 320 315 292 255 234 210 228 232 250 132 212 194 196 193 193 214 217 266 258 249 209 245 229 201 213 237 165 188 172 220 130 162 174 177 185 187 186 188 187
339 336 331 325 326 321 318 287 321 233 216 221 263 262 226 221 174 178 194 237 188 199 209 224 227 225 228 223 231 209 228 224 208 180 225 195 256 159 174 188 210 194 199 194 197
338 333 327 323 323 318 323 213 218 191 218 281 303 253 2 169 171 212 183 214 202 205 220 201 224 221 233 225 263 318 265 238 228 172 195 247 209 254 169 212 210 205 199 201 203
334 331 326 323 321 313 284 14 42 332 294 277 249 248 269 281 219 222 178 199 205 218 218 229 229 250 235 332 293 275 260 228 199 147 194 225 238 259 236 194 212 225 201 203 208
332 330 327 323 318 293 332 25 319 308 264 277 211 223 214 213 234 195 197 208 207 226 231 238 239 217 248 231 238 249 258 250 247 159 206 251 267 257 244 244 228 219 242 200 206
329 330 328 325 295 339 287 341 324 349 269 140 193 177 185 195 220 242 187 217 233 236 232 237 245 235 258 243 233 237 229 265 272 172 222 202 246 239 237 241 234 238 221 233 200
326 328 323 325 315 298 354 322 329 240 271 128 117 91 155 203 118 194 193 219 237 221 255 233 227 252 234 243 238 246 257 220 255 257 252 249 245 264 274 244 224 220 238 238 221
324 324 326 213 220 277 313 313 264 235 234 139 141 191 180 213 211 152 200 225 234 253 236 250 272 244 237 248 244 252 248 261 254 241 240 240 261 245 243 241 236 233 230 221 234
321 316 305 302 298 340 313 264 247 247 104 164 199 201 213 189 224 184 200 208 226 224 239 224 236 222 258 229 221 237 230 235 233 239 245 243 244 238 262 241 288 257 268 246 214
321 311 195 258 306 303 278 242 255 301 303 119 255 244 247 241 209 212 230 218 212 245 264 239 220 212 203 234 229 208 231 237 233 233 238 231 232 240 258 259 269 293 272 296 288
313 272 246 189 280 278 250 232 243 293 349 304 275 250 249 227 270 229 224 247 235 207 250 268 249 100 213 206 232 245 211 236 257 271 281 281 177 234 208 230 249 256 227 230 251
311 288 256 360 295 238 237 249 285 358 316 286 276 287 275 236 208 240 240 222 242 249 210 251 265 266 233 245 247 252 287 236 240 258 267 266 253 262 170 187 225 224 224 228 244
263 273 97 218 240 231 239 245 249 290 280 274 273 281 274 287 283 262 254 258 199 259 224 230 252 262 246 212 240 206 241 252 272 267 256 246 251 4 237 192 209 223 223 229 245
285 263 98 270 248 232 248 282 36 275 250 257 270 271 282 295 288 275 269 262 21 261 242 232 243 248 252 231 232 246 236 224 240 243 254 281 286 306 267 263 235 221 226 214 238
285 292 124 243 258 248 226 263 273 270 270 269 245 252 270 262 265 255 264 266 53 270 259 248 225 250 250 258 213 245 252 257 262 274 268 281 268 230 251 229 264 236 232 226 212
279 271 171 209 289 293 302 286 274 256 281 276 277 277 271 259 257 262 278 267 250 248 41 345 268 257 263 265 264 231 226 240 237 236 250 244 257 257 261 212 232 241 255 254 268
244 68 10 281 106 323 295 301 287 280 258 287 281 261 256 262 263 262 263 263 263 242 263 240 256 260 262 260 272 281 275 235 232 246 244 262 264 270 276 263 222 230 227 234 258
304 331 39 282 288 281 260 266 282 284 302 287 283 299 348 306 294 304 331 321 283 278 266 242 251 266 270 267 264 262 257 259 259 267 260 245 250 263 268 279 278 252 264 275 262
81 234 275 284 254 259 264 283 282 348 287 268 304 329 294 309 344 323 305 293 285 292 292 302 295 270 257 260 264 257 253 259 254 255 261 261 266 267 271 257 254 241 251 246 249